Location: Coors Field
(39.7564°N, 104.9943°W)
Time: 00:44:24
(UTC-06:00)

ISS - Visible Passes

Search period start: 30 June 2016 00:00
Search period end: 10 July 2016 00:00
Orbit: 402 x 403 km, 51.6° (Epoch: 29 June)

Date Brightness Start Highest point End Pass type
(mag) Time Alt. Az. Time Alt. Az. Time Alt. Az.
07 Jul -1.9 05:00:43 10° SSW 05:03:36 30° SE 05:06:30 10° ENE visible
08 Jul -1.0 04:09:23 12° SSE 04:10:58 16° SE 04:13:00 10° E visible
09 Jul -3.3 04:51:19 12° SW 04:54:16 79° SE 04:57:31 10° NE visible
